Regional Weather Roundup
Issued by NWS

Home | Current Version | Previous Version | Text Only | Print | Product List | Glossary On
Versions: 1 2 3 4 5 6 7 8 9 10 11 12 13 14 15 16 17 18 19 20 21 22 23 24 25 26 27 28 29 30 31 32 33 34 35 36 37 38 39 40 41 42 43 44 45 46 47 48 49 50
000
ASUS43 KDTX 141010
RWRMI
MICHIGAN HOURLY REGIONAL WEATHER ROUNDUP
NATIONAL WEATHER SERVICE DETROIT/PONTIAC MI
600 AM EDT MON JUL 14 2014

NOTE: "FAIR" INDICATES FEW OR NO CLOUDS BELOW 12,000 FEET WITH NO
SIGNIFICANT WEATHER AND/OR OBSTRUCTION TO VISIBILITY.

MIZ047>049-052>055-059>063-066>070-074>076-081>083-141100-
SOUTHEAST LOWER MICHIGAN

CITY           SKY/WX    TMP DP  RH WIND       PRES   REMARKS
ADRIAN         MOCLDY    65  62  90 CALM      29.87F
ALMA           CLOUDY    60  59  96 CALM      29.87R FOG
ANN ARBOR      MOCLDY    64  61  90 CALM      29.86F
BAD AXE        CLOUDY    60  55  85 CALM      29.88R
CARO           MOCLDY    60  59  96 CALM      29.87R
DETROIT CITY   LGT RAIN  68  64  87 E6        29.88F
DETROIT        CLOUDY    66  64  93 E5        29.87F
FLINT          PTCLDY    64  60  87 CALM      29.87R
GROSSE ILE     CLOUDY    68  63  83 E7        29.85F
HILLSDALE      MOCLDY    64  64 100 CALM      29.88S
HOWELL         PTCLDY    63  62  95 SE3       29.86F

CITY           SKY/WX    TMP DP  RH WIND       PRES   REMARKS
JACKSON        PTCLDY    65  63  93 W5        29.87S
LAMBERTVILLE   MOCLDY    64  61  88 CALM      29.87F
LANSING        CLEAR     63  61  93 CALM      29.86F
LAPEER         CLOUDY    61  58  88 CALM      29.88S
MASON          CLEAR     63  61  95 CALM      29.87S
MONROE         MOCLDY    64  63  94 CALM      29.85F
MT. CLEMENS    RAIN      64  63  94 SW2       29.88S
PONTIAC        MOCLDY    66  62  87 SE6       29.87S
PORT HOPE        N/A     61  54  77 VRB3      29.86S
PORT HURON     RAIN      63  59  88 SE3       29.89R
TRI CITIES     MOCLDY    62  58  86 CALM      29.87S
TROY           LGT RAIN  65  64  97 E3        29.88F
SAGINAW HB     MOCLDY    61  61 100 CALM      29.86S
$$
MIZ043>046-050>051-056>058-064>065-071>073-077>080-141100-
SOUTHWEST LOWER MICHIGAN

CITY           SKY/WX    TMP DP  RH WIND       PRES   REMARKS
BATTLE CREEK   PTCLDY    65  62  90 NW7       29.88S
BENTON HARBOR  FOG       60  60 100 CALM      29.87F VSB 1/4
BIG RAPIDS     CLEAR     53  53 100 CALM      29.87S
COLDWATER      MOCLDY    67  65  94 CALM      29.88S
FREMONT        FOG       54  54 100 CALM      29.85F VSB 1/4
HOLLAND        CLEAR     60  57  89 CALM      29.87F
GRAND RAPIDS   PTCLDY    63  61  93 W5        29.87S
IONIA          FAIR      62  61  96 CALM      29.86F
KALAMAZOO      PTCLDY    64  62  93 NW5       29.87F
LUDINGTON      FOG       52  51  97 CALM      29.85S VSB 1/4
MARSHALL       PTCLDY    63  62  98 W3        29.87S FOG
MOUNT PLEASANT   N/A     57  56  96 CALM      29.86S FOG
MUSKEGON       CLEAR     58  55  90 CALM      29.86F
SOUTH HAVEN      N/A     58  58 100 CALM      29.88S FOG
$$
MIZ016>042-141100-
NORTHERN LOWER MICHIGAN

CITY           SKY/WX    TMP DP  RH WIND       PRES   REMARKS
ALPENA         PTCLDY    48  47  96 CALM      29.86S
BEAVER ISLAND  PTCLDY    58  53  83 SW3       29.81S
BELLAIRE       CLOUDY    49  48  96 CALM      29.83R
CADILLAC       CLEAR     45  45 100 CALM      29.86S
CHARLEVOIX     MOCLDY    61  53  76 S6        29.85R
FRANKFORT      MOCLDY    55  53  91 CALM      29.84R
GAYLORD        CLEAR     50  48  93 SE5       29.86R
GRAYLING       CLEAR     46  46 100 CALM      29.87S FOG
HARBOR SPRINGS CLOUDY    54  51  92 CALM      29.82R
HOUGHTON LAKE  CLEAR     46  46 100 N3        29.87S
MANISTEE       PTCLDY    52  48  87 E3        29.85S
OSCODA         PTCLDY    49  46  91 CALM      29.86F
PELLSTON       CLOUDY    52  50  93 SE5       29.82S
ROGERS CITY    CLEAR     55  52  91 S9        29.85S
TRAVERSE CITY  MOCLDY    58  54  86 SW3       29.83R
$$
MIZ007>008-015-141100-
EASTERN UPPER MICHIGAN

CITY           SKY/WX    TMP DP  RH WIND       PRES   REMARKS
KINROSS        CLOUDY    55  52  88 SE5       29.80F
MACKINAC ISLAN CLOUDY    58  53  83 S8        29.81S
NEWBERRY       CLOUDY    55  53  92 SW12      29.80R
S. S. MARIE    CLOUDY    52  48  86 NE5       29.81S
MUNISING         N/A     56  51  84 S5        29.79R
$$
MIZ004>006-011>014-085-141100-
CENTRAL UPPER MICHIGAN

CITY           SKY/WX    TMP DP  RH WIND       PRES   REMARKS
MANISTIQUE     CLOUDY    55  54  98 CALM      29.79S
ESCANABA       CLOUDY    54  48  82 S3        29.80S
MENOMINEE      CLEAR     54  48  82 W3        29.81S
SAWYER-GWINN   PTCLDY    53  50  87 W6        29.81S
$$
MIZ001>003-009>011-084-141100-
WESTERN UPPER MICHIGAN

CITY           SKY/WX    TMP DP  RH WIND       PRES   REMARKS
IRON MOUNTAIN  CLOUDY    54  50  86 CALM      29.81S
HOUGHTON       CLEAR     51  48  89 W12       29.80R
COPPER HARBOR    N/A     53  48  83 NW6       29.79R
IRONWOOD       CLOUDY    52  45  76 SW3       29.81S
$$

ABBREVIATIONS USED IN REMARKS
   TC - TEMPERATURE IN CELSIUS
  WCI - WIND CHILL INDEX
   HX - HEAT INDEX
  VSB - VISIBILITY




USA.gov is the U.S. government's official web portal to all federal, state and local government web resources and services.